DW1289 Weather Reports


time (UTC)temp
F
wind
direction
speed
knots
gust
knots
rain 1hr
in
rain 24hr
in
rain mn
in
humidity
%
barometer
mb
20260503033016 45 0.0 0.0 0.00 0.00 0.00 68 1019.9
20260503032016 46 0.0 0.0 0.00 0.00 0.00 67 1019.8
20260503031016 47 0.0 0.0 0.00 0.00 0.00 67 1019.8
20260503030017 47 0.0 0.0 0.00 0.00 0.00 66 1019.7
20260503025016 48 0.0 0.0 0.00 0.00 0.00 65 1019.7
20260503024016 49 0.0 0.0 0.00 0.00 0.00 64 1019.7
20260503023016 49 0.0 0.0 0.00 0.00 0.00 64 1019.5
20260503022016 49 0.0 0.0 0.00 0.00 0.00 64 1019.3
20260503021016 50 0.0 0.0 0.00 0.00 0.00 64 1019.4
20260503020017 50 0.0 0.9 0.00 0.00 0.00 64 1019.2
20260503015016 51 0.0 0.9 0.00 0.00 0.00 63 1019.0
20260503014056 51 315 0.9 2.6 0.00 0.00 0.00 62 1018.8
20260503013016 51 0.0 0.0 0.00 0.00 0.00 60 1018.6
20260503012016 52 0.0 0.9 0.00 0.00 0.00 59 1018.4
20260503011016 52 0.0 0.9 0.00 0.00 0.00 59 1018.2
20260503010036 53 0.0 0.9 0.00 0.00 0.00 58 1018.1
20260503005016 53 0.0 1.7 0.00 0.00 0.00 57 1018.0
20260503004036 53 0.0 1.7 0.00 0.00 0.00 56 1018.0
20260503003016 54 248 0.9 1.7 0.00 0.00 0.00 55 1017.9
20260503002016 54 248 0.9 2.6 0.00 0.00 0.00 54 1017.8
20260503001016 55 248 0.9 1.7 0.00 0.00 0.00 54 1017.6
20260503000016 55 248 0.9 2.6 0.00 0.00 0.00 53 1017.6
20260502235016 55 248 0.9 2.6 0.00 0.00 0.00 53 1017.6
20260502234016 56 270 0.9 3.5 0.00 0.00 0.00 52 1017.5
20260502233016 56 270 0.9 2.6 0.00 0.00 0.00 51 1017.5
20260502232016 56 248 0.9 3.5 0.00 0.00 0.00 51 1017.5
20260502231016 57 0 0.9 6.1 0.00 0.00 0.00 50 1017.5
20260502230016 57 248 0.9 3.5 0.00 0.00 0.00 53 1017.6
20260502225036 56 0.0 1.7 0.00 0.00 0.00 52 1017.6
20260502224036 57 248 0.9 2.6 0.00 0.00 0.00 54 1017.5
20260502223036 57 0.0 3.5 0.00 0.00 0.00 50 1017.7
20260502222017 57 45 0.9 3.5 0.00 0.00 0.00 48 1017.7
20260502221016 57 338 0.9 3.5 0.00 0.00 0.00 51 1017.6
20260502220016 57 45 1.7 4.3 0.00 0.00 0.00 51 1017.5
20260502215016 57 45 1.7 5.2 0.00 0.00 0.00 51 1017.4
20260502214036 57 248 0.9 3.5 0.00 0.00 0.00 51 1017.3
20260502213016 57 45 1.7 3.5 0.00 0.00 0.00 52 1017.4
20260502212016 57 45 0.9 2.6 0.00 0.00 0.00 58 1017.4
20260502211016 56 0.0 2.6 0.00 0.00 0.00 57 1017.5
20260502210016 56 270 0.9 2.6 0.00 0.00 0.00 55 1017.5
20260502205016 56 0.0 1.7 0.00 0.00 0.00 55 1017.5
20260502204016 56 45 0.9 2.6 0.00 0.00 0.00 55 1017.6
20260502203016 56 248 1.7 5.2 0.00 0.00 0.00 56 1017.6
20260502202017 56 270 0.9 4.3 0.00 0.00 0.00 55 1017.6
20260502201016 56 0 0.9 4.3 0.00 0.00 0.00 54 1017.7
20260502200016 56 315 0.9 3.5 0.00 0.00 0.00 54 1017.8
20260502195016 57 338 0.9 2.6 0.00 0.00 0.00 54 1017.8
20260502194016 57 338 0.9 2.6 0.00 0.00 0.00 54 1017.9
20260502193016 58 270 0.9 3.5 0.00 0.00 0.00 52 1017.9
20260502192036 58 248 0.9 3.5 0.00 0.00 0.00 53 1017.9
20260502191016 58 248 1.7 7.8 0.00 0.00 0.00 54 1017.9
20260502190016 59 248 2.6 6.1 0.00 0.00 0.00 55 1018.0
20260502185036 59 225 1.7 4.3 0.00 0.00 0.00 57 1018.2
20260502184016 59 248 2.6 7.8 0.00 0.00 0.00 56 1018.2
20260502183016 58 248 2.6 6.1 0.00 0.00 0.00 59 1018.3
20260502182016 56 248 2.6 6.1 0.00 0.00 0.00 61 1018.4
20260502181036 57 248 1.7 7.0 0.00 0.00 0.00 59 1018.6
20260502164016 54 248 0.9 2.6 0.00 0.00 0.00 63 1019.2
20260502163016 54 270 0.9 2.6 0.00 0.00 0.00 65 1019.2
20260502162016 54 248 0.9 3.5 0.00 0.00 0.00 65 1019.4
20260502161016 54 315 0.9 3.5 0.00 0.00 0.00 65 1019.3
20260502152016 53 0.0 1.7 0.00 0.00 0.00 63 1019.0
20260502151016 52 135 0.9 2.6 0.00 0.00 0.00 65 1019.1
20260502123016 42 0.0 0.0 0.00 0.00 0.00 91 1018.6
20260502122016 42 0.0 0.0 0.00 0.00 0.00 91 1018.7
20260502121016 41 0.0 0.0 0.00 0.00 0.00 91 1018.5
20260502115016 40 0.0 0.0 0.00 0.00 0.00 90 1018.4
20260502114016 40 0.0 0.0 0.00 0.00 0.00 90 1018.3
20260502113036 40 0.0 0.0 0.00 0.00 0.00 89 1018.0
20260502112016 39 0.0 0.0 0.00 0.00 0.00 89 1017.9
20260502111016 39 0.0 0.0 0.00 0.00 0.00 89 1018.0
20260502110016 39 0.0 0.0 0.00 0.00 0.00 87 1017.9
20260502105036 39 0.0 0.0 0.00 0.00 0.00 87 1017.8
20260502104016 39 0.0 0.0 0.00 0.00 0.00 87 1017.7
20260502103036 39 0.0 0.0 0.00 0.00 0.00 87 1017.7
20260502102036 39 0.0 0.0 0.00 0.00 0.00 87 1017.9
20260502101016 39 0.0 0.0 0.00 0.00 0.00 87 1017.6
20260502091016 40 0.0 0.0 0.00 0.00 0.00 86 1017.9
20260502071016 39 0.0 0.0 0.00 0.00 0.00 82 1017.7
20260502070016 40 0.0 0.0 0.00 0.00 0.00 81 1017.5
20260502065016 40 0.0 0.0 0.00 0.00 0.00 81 1017.5
20260502064016 40 0.0 0.0 0.00 0.00 0.00 80 1017.5
20260502063056 40 0.0 0.0 0.00 0.00 0.00 80 1017.7
20260502062016 40 0.0 0.0 0.00 0.00 0.00 80 1017.8
20260502061016 41 0.0 0.0 0.00 0.00 0.00 80 1017.8
20260502060016 41 0.0 0.0 0.00 0.00 0.00 80 1018.1
20260502055016 41 0.0 0.0 0.00 0.00 0.00 79 1017.9
20260502054016 41 0.0 0.0 0.00 0.00 0.00 79 1017.9
20260502053036 42 0.0 0.0 0.00 0.00 0.00 78 1018.0
20260502052016 42 0.0 0.0 0.00 0.00 0.00 78 1018.1
20260502051016 42 0.0 0.0 0.00 0.00 0.00 77 1018.1
20260502050016 43 0.0 0.0 0.00 0.00 0.00 77 1018.2
20260502045016 43 0.0 0.0 0.00 0.00 0.00 77 1018.1
20260502044016 43 0.0 0.0 0.00 0.00 0.00 76 1018.1
20260502043016 44 0.0 0.0 0.00 0.00 0.00 76 1018.2
20260502042016 44 0.0 0.0 0.00 0.00 0.00 74 1018.2
20260502041056 44 0.0 0.0 0.00 0.00 0.00 73 1018.3
20260502040016 45 0.0 0.0 0.00 0.00 0.00 72 1018.3
20260502035017 45 0.0 0.0 0.00 0.00 0.00 71 1018.2
20260502034016 45 0.0 0.0 0.00 0.00 0.00 71 1018.2